EW3836 Weather Reports


Display with metric or nautical units.
time (UTC)temp
F
wind
direction
speed
MPH
gust
MPH
rain 1hr
in
rain 24hr
in
rain mn
in
humidity
%
barometer
mb
20260905091536 53 170 0.0 0.0 0.00 0.00 0.00 65 1013.5
20260905090033 54 165 0.0 0.0 0.00 0.00 0.00 64 1013.6
20260905084530 53 146 0.0 0.0 0.00 0.00 0.00 64 1013.6
20260905083030 53 161 0.0 0.0 0.00 0.00 0.00 64 1013.7
20260905081527 53 177 0.0 0.0 0.00 0.00 0.00 65 1013.8
20260905080025 52 168 0.0 0.0 0.00 0.00 0.00 66 1013.7
20260905074525 54 133 0.0 0.0 0.00 0.00 0.00 58 1013.6
20260905073020 54 122 0.0 0.0 0.00 0.00 0.00 57 1013.3
20260905071517 54 116 0.0 0.0 0.00 0.00 0.00 56 1013.2
20260905070012 54 121 0.0 0.0 0.00 0.00 0.00 59 1013.0
20260905064511 54 117 0.0 0.0 0.00 0.00 0.00 59 1012.9
20260905063011 54 121 0.0 0.0 0.00 0.00 0.00 57 1012.8
20260905061524 53 122 0.0 0.0 0.00 0.00 0.00 60 1012.7
20260905060010 52 125 0.0 0.0 0.00 0.00 0.00 62 1012.7
20260905054509 52 119 0.0 0.0 0.00 0.00 0.00 63 1012.6
20260905053009 52 127 0.0 0.0 0.00 0.00 0.00 64 1012.7
20260905051517 52 115 0.0 0.0 0.00 0.00 0.00 63 1012.7
20260905050008 52 116 0.0 0.0 0.00 0.00 0.00 63 1012.8
20260905044508 52 122 0.0 0.0 0.00 0.01 0.00 61 1012.8
20260905043007 52 122 0.0 0.0 0.00 0.01 0.00 64 1012.8
20260905041511 52 120 0.0 0.0 0.00 0.01 0.00 64 1012.8
20260905040107 53 121 0.0 0.0 0.00 0.01 0.00 62 1012.9
20260905034505 54 111 0.0 0.0 0.00 0.05 0.00 58 1012.9
20260905033006 55 108 0.0 0.0 0.00 0.05 0.00 56 1012.9
20260905031504 55 98 0.0 0.0 0.00 0.05 0.00 55 1012.9
20260905030010 55 109 0.0 0.0 0.00 0.05 0.00 56 1012.9
20260905024502 55 109 0.0 0.0 0.00 0.11 0.00 55 1012.8
20260905023002 56 96 0.0 0.0 0.00 0.11 0.00 55 1012.7
20260905021500 56 122 0.0 0.0 0.00 0.11 0.00 55 1012.8
20260905020100 57 123 0.0 0.0 0.00 0.11 0.00 54 1012.8
20260905014607 57 146 0.0 0.0 0.00 0.12 0.00 53 1012.8
20260905013117 57 141 0.0 0.0 0.00 0.12 0.00 53 1012.7
20260905011657 58 156 0.0 0.0 0.00 0.12 0.00 51 1012.7
20260905010100 60 355 0.0 0.0 0.00 0.12 0.00 52 1012.5
20260905004637 61 59 0.0 0.0 0.00 0.12 0.00 49 1012.5
20260905003056 62 35 0.0 0.0 0.00 0.12 0.00 49 1012.2
20260905001605 64 265 0.0 0.0 0.00 0.12 0.00 43 1012.1
20260905000056 64 24 0.0 0.0 0.00 0.12 0.00 45 1012.2
20260904234551 62 328 0.0 0.0 0.00 0.12 0.00 51 1012.1
20260904233052 62 355 0.0 0.0 0.00 0.12 0.00 51 1012.2
20260904231550 62 98 0.0 0.0 0.00 0.12 0.00 51 1012.1
20260904230049 62 60 0.0 0.0 0.00 0.12 0.00 49 1012.2
20260904224548 62 31 0.0 0.0 0.00 0.12 0.00 48 1012.2
20260904223047 62 137 0.0 0.0 0.00 0.12 0.00 49 1012.2
20260904221550 64 348 0.0 0.0 0.00 0.12 0.00 49 1012.1
20260904220042 62 92 0.0 0.0 0.00 0.12 0.00 52 1012.2
20260904214542 62 287 0.0 0.0 0.00 0.12 0.00 46 1012.4
20260904213042 62 65 0.0 0.0 0.00 0.12 0.00 51 1012.2
20260904211541 60 265 0.0 0.0 0.00 0.12 0.00 43 1012.3
20260904210035 60 242 0.0 0.0 0.00 0.12 0.00 41 1012.3
20260904204533 61 87 0.0 0.0 0.00 0.12 0.00 42 1012.3
20260904203033 61 157 0.0 0.0 0.00 0.12 0.00 47 1012.4
20260904201528 60 103 0.0 0.0 0.00 0.12 0.00 48 1012.4
20260904200025 59 255 0.0 0.0 0.00 0.12 0.00 48 1012.5
20260904194524 60 94 0.0 0.0 0.00 0.12 0.00 51 1012.5
20260904193021 58 153 0.0 0.0 0.00 0.12 0.00 56 1012.6
20260904191518 57 66 0.0 0.0 0.00 0.12 0.00 54 1012.6
20260904190015 58 133 0.0 0.0 0.00 0.12 0.00 54 1012.6
20260904184521 60 15 0.0 0.0 0.00 0.12 0.00 57 1012.6
20260904183013 60 55 0.0 0.0 0.00 0.12 0.00 54 1012.6
20260904181519 56 300 0.0 0.0 0.00 0.12 0.00 61 1012.7
20260904180020 60 313 0.0 0.0 0.00 0.12 0.00 57 1012.7
20260904174505 58 312 0.0 0.0 0.00 0.12 0.00 56 1012.6
20260904173000 56 217 0.0 0.0 0.00 0.12 0.00 58 1012.5
20260904171619 56 136 0.0 0.0 0.00 0.12 0.00 60 1012.4
20260904170055 55 76 0.0 0.0 0.00 0.12 0.00 62 1012.4
20260904164609 54 100 0.0 0.0 0.00 0.12 0.00 65 1012.3
20260904163049 53 119 0.0 0.0 0.00 0.12 0.00 66 1012.1
20260904161554 52 121 0.0 0.0 0.00 0.12 0.00 68 1012.0
20260904160041 51 113 0.0 0.0 0.00 0.12 0.00 71 1012.0
20260904154543 50 163 0.0 0.0 0.00 0.12 0.00 73 1012.0
20260904153040 49 150 0.0 0.0 0.00 0.12 0.00 75 1012.1
20260904151534 48 128 0.0 0.0 0.00 0.12 0.00 76 1012.0
20260904150029 47 158 0.0 0.0 0.00 0.12 0.00 78 1012.0
20260904144525 46 130 0.0 0.0 0.00 0.12 0.00 79 1011.8
20260904143023 45 138 0.0 0.0 0.00 0.12 0.00 81 1011.7
20260904141520 44 150 0.0 0.0 0.00 0.12 0.00 83 1011.4
20260904140017 43 162 0.0 0.0 0.00 0.12 0.00 84 1011.3
20260904134518 43 134 0.0 0.0 0.00 0.12 0.00 84 1011.2
20260904133014 43 149 0.0 0.0 0.00 0.12 0.00 85 1011.1
20260904131510 43 150 0.0 0.0 0.00 0.12 0.00 84 1010.8
20260904130010 44 143 0.0 0.0 0.00 0.12 0.00 83 1010.8
20260904124508 43 149 0.0 0.0 0.00 0.12 0.00 83 1010.6
20260904123006 43 157 0.0 0.0 0.00 0.12 0.00 84 1010.6
20260904121505 43 153 0.0 0.0 0.00 0.12 0.00 84 1010.4
20260904120001 44 149 0.0 0.0 0.00 0.12 0.00 84 1010.3
20260904114605 44 129 0.0 0.0 0.00 0.13 0.00 84 1010.1
20260904113059 44 133 0.0 0.0 0.00 0.13 0.00 83 1009.9
20260904111558 44 121 0.0 0.0 0.00 0.13 0.00 83 1009.8
20260904110055 44 153 0.0 0.0 0.00 0.13 0.00 85 1009.7
20260904104610 44 123 0.0 0.0 0.00 0.16 0.00 85 1009.7
20260904103058 44 152 0.0 0.0 0.00 0.16 0.00 86 1009.7
20260904101551 44 110 0.0 0.0 0.00 0.16 0.00 86 1009.1
20260904100105 44 103 0.0 0.0 0.00 0.16 0.00 86 1009.1
20260904094557 44 129 0.0 0.0 0.00 0.18 0.00 86 1009.2
20260904093043 44 112 0.0 0.0 0.00 0.18 0.00 86 1008.8